Location: Unspecified
(0.0000°N, 0.0000°E)
Time: 17:41:52
(UTC+00:00)

Vanguard 2 Rocket - Pass Details

Date: 14 December 2017
Orbit: 554 x 3327 km, 32.9° (Epoch: 18 July)

Event Time Altitude Azimuth Distance (km) Brightness Sun altitude
Exits shadow 03:54:42 39° 294° (WNW) 3,647 9.3 -27.3°
Maximum altitude 04:02:30 76° 218° (SW) 2,328 8.7 -25.6°
Drops below altitude 10° 04:12:58 10° 133° (SE) 3,736 11.0 -23.2°
Sets 04:15:25 0° 131° (SE) 4,431 11.7 -22.7°
